Regional Weather Roundup
Issued by NWS

Home | Current Version | Previous Version | Graphics & Text | Print | Product List | Glossary On
Versions: 1 2 3 4 5 6 7 8 9 10 11 12 13 14 15 16 17 18 19 20 21 22 23 24 25 26 27 28 29 30 31 32 33 34 35 36 37 38 39 40 41 42 43 44 45 46 47 48 49 50
000
ASUS43 KOAX 021010
RWRNE

WEATHER ROUNDUP FOR NEBRASKA
NATIONAL WEATHER SERVICE OMAHA NE
500 AM CDT THU JUL 02 2015

NOTES: SATELLITE DATA IS BEING USED TO AUGMENT CLOUD COVER ABOVE
       12000 FEET.
       "FAIR" INDICATES FEW OR NO CLOUDS BELOW 12,000 FEET WITH NO
       SIGNIFICANT WEATHER AND/OR OBSTRUCTIONS TO VISIBILITY.

  * THESE STATIONS DO NOT REPORT WEATHER SUCH AS RAIN...SNOW OR FOG.

NEZ001>004-019>022-054>056-021100-
NEBRASKA PANHANDLE

CITY           SKY/WX    TMP DP  RH WIND       PRES   REMARKS
SCOTTSBLUFF    LGT RAIN  60  32  34 S9        30.14F
ALLIANCE       LGT RAIN  60  58  92 S6        30.12F
CHADRON        CLOUDY    60  58  92 W7        30.04F
SIDNEY         LGT RAIN  58  57  97 NE24G32   30.20R
$$

NEZ057>060-069>072-079>082-021100-
SOUTHWEST NEBRASKA

CITY           SKY/WX    TMP DP  RH WIND       PRES   REMARKS
NORTH PLATTE   LGT RAIN  65  60  84 N20G30    30.04R
IMPERIAL       LGT RAIN  64  57  78 N32G46    30.10R
MCCOOK         MOCLDY    72  64  76 SE10      29.94S
$$

NEZ005>010-023>029-035>040-094-021100-
NORTH CENTRAL NEBRASKA

CITY           SKY/WX    TMP DP  RH WIND       PRES   REMARKS
VALENTINE      CLOUDY    66  64  93 SW5       29.96F
BROKEN BOW     LGT RAIN  69  66  90 NW6       30.00S FOG
$$

NEZ041-046>049-061>064-073>077-083>087-021100-
SOUTH CENTRAL NEBRASKA

CITY           SKY/WX    TMP DP  RH WIND       PRES   REMARKS
GRAND ISLAND   CLOUDY    68  67  96 E7        29.97R FOG
HASTINGS       CLOUDY    70  68  93 E5        29.97R FOG
KEARNEY *      CLOUDY    70  66  88 CALM      29.98R
$$

NEZ011>018-030>034-042>045-021100-
NORTHEAST NEBRASKA

CITY           SKY/WX    TMP DP  RH WIND       PRES   REMARKS
NORFOLK        CLOUDY    64  60  87 E7        29.96S
COLUMBUS *     CLOUDY   N/A N/A N/A E8        29.95S
TEKAMAH        MOCLDY    63  58  83 NE5       29.96S
$$

NEZ050>053-065>068-078-088>093-021100-
SOUTHEAST NEBRASKA

CITY           SKY/WX    TMP DP  RH WIND       PRES   REMARKS
LINCOLN        CLOUDY    69  65  86 E9        29.94R FOG
OMAHA EPPLEY   CLOUDY    65  59  81 VRB3      29.94S
FALLS CITY     CLOUDY    70  67  90 E8        29.88S
$$

NEZ044-045-051>053-067-021100-
OMAHA AREA

CITY           SKY/WX    TMP DP  RH WIND       PRES   REMARKS
OMAHA EPPLEY   CLOUDY    65  59  81 VRB3      29.94S
OFFUTT AFB     MOCLDY    65  60  84 NE7       29.93R
$$


USA.gov is the U.S. government's official web portal to all federal, state and local government web resources and services.